UAE351 OMDB-WIII

Flight info

Callsign UAE351
Flight time N/A
Altitude 33000
Route IVURO M428 MUNGA A777 VAXIM P307 PARAR N571 VIRAM/N0493F350 N571 GUNIP M630 BOBAG P501 ANITO B470 BUNIK
Aircraft B77W/H-SDE1E2E3FGHIJ2J3J4J5M1RWXY/LB1D1

Departure

Time 2026-04-24 00:29
Airport Dubai International Airport (OMDB)

Arrival

Time N/A
Airport Soekarno-Hatta International Airport (WIII)
Time Latitude Longitude Altitude Speed Heading
2026-04-23 23:58 25.24211 55.37594 30 ft 0 kts 249°
2026-04-24 00:00 25.24211 55.37595 26 ft 0 kts 249°
2026-04-24 00:20 25.24217 55.37611 31 ft 3 kts 249°
2026-04-24 00:20 25.24226 55.37639 31 ft 3 kts 249°
2026-04-24 00:20 25.24236 55.37666 30 ft 3 kts 240°
2026-04-24 00:20 25.24253 55.37688 31 ft 3 kts 208°
2026-04-24 00:21 25.24274 55.37693 31 ft 4 kts 142°
2026-04-24 00:21 25.24279 55.37687 31 ft 12 kts 121°
2026-04-24 00:23 25.24280 55.37687 32 ft 0 kts 121°
2026-04-24 00:24 25.24279 55.37688 26 ft 1 kts 121°
2026-04-24 00:24 25.24271 55.37702 29 ft 3 kts 121°
2026-04-24 00:24 25.24260 55.37734 30 ft 6 kts 103°
2026-04-24 00:24 25.24260 55.37747 29 ft 1 kts 88°
2026-04-24 00:25 25.24266 55.37764 29 ft 3 kts 64°
2026-04-24 00:25 25.24288 55.37787 31 ft 5 kts 39°
2026-04-24 00:25 25.24325 55.37815 26 ft 7 kts 33°
2026-04-24 00:25 25.24373 55.37850 27 ft 9 kts 33°
2026-04-24 00:26 25.24425 55.37889 28 ft 9 kts 34°
2026-04-24 00:26 25.24476 55.37928 29 ft 9 kts 35°
2026-04-24 00:26 25.24527 55.37968 29 ft 9 kts 35°
2026-04-24 00:26 25.24583 55.38010 28 ft 11 kts 35°
2026-04-24 00:27 25.24654 55.38064 29 ft 13 kts 33°
2026-04-24 00:27 25.24731 55.38107 31 ft 13 kts
2026-04-24 00:27 25.24790 55.38054 30 ft 0 kts 303°
2026-04-24 00:27 25.24805 55.38028 30 ft 8 kts 303°
2026-04-24 00:28 25.24807 55.38025 30 ft 0 kts 303°
2026-04-24 00:28 25.24838 55.37972 30 ft 38 kts 303°
2026-04-24 00:28 25.25148 55.37408 31 ft 133 kts 301°
2026-04-24 00:28 25.25792 55.36256 39 ft 214 kts 302°
2026-04-24 00:29 25.26656 55.34813 718 ft 226 kts 306°
2026-04-24 00:29 25.27464 55.33522 1646 ft 219 kts 303°
2026-04-24 00:29 25.28261 55.32046 1992 ft 230 kts 301°
2026-04-24 00:29 25.29084 55.30508 2372 ft 236 kts 305°
2026-04-24 00:30 25.30318 55.29340 2654 ft 238 kts 342°
2026-04-24 00:30 25.31948 55.29266 3076 ft 236 kts 10°
2026-04-24 00:30 25.33587 55.29518 3419 ft 241 kts
2026-04-24 00:30 25.35272 55.29599 3891 ft 244 kts
2026-04-24 00:31 25.36976 55.29645 3999 ft 248 kts 359°
2026-04-24 00:31 25.38697 55.29702 4105 ft 246 kts
2026-04-24 00:31 25.40318 55.30316 4390 ft 257 kts 37°
2026-04-24 00:31 25.41488 55.31866 4566 ft 270 kts 56°
2026-04-24 00:32 25.42594 55.33567 4795 ft 282 kts 51°
2026-04-24 00:32 25.43847 55.35280 5230 ft 291 kts 50°
2026-04-24 00:32 25.45145 55.37022 5771 ft 295 kts 50°
2026-04-24 00:32 25.46451 55.38794 6351 ft 298 kts 51°
2026-04-24 00:33 25.47766 55.40586 6897 ft 301 kts 51°
2026-04-24 00:33 25.49082 55.42409 7460 ft 304 kts 52°
2026-04-24 00:33 25.50379 55.44272 8012 ft 307 kts 52°
2026-04-24 00:33 25.51687 55.46155 8580 ft 310 kts 52°
2026-04-24 00:34 25.52801 55.48147 8957 ft 311 kts 72°
2026-04-24 00:34 25.53000 55.50487 9297 ft 311 kts 106°
2026-04-24 00:34 25.52165 55.52645 9814 ft 302 kts 127°
2026-04-24 00:34 25.51012 55.54607 10151 ft 310 kts 126°
2026-04-24 00:35 25.49827 55.56693 10310 ft 330 kts 125°
2026-04-24 00:35 25.48572 55.58906 10456 ft 349 kts 125°
2026-04-24 00:35 25.47241 55.61243 10607 ft 369 kts 125°
2026-04-24 00:35 25.45856 55.63671 10804 ft 385 kts 125°
2026-04-24 00:36 25.44405 55.66215 11244 ft 395 kts 125°
2026-04-24 00:36 25.42942 55.68806 11783 ft 399 kts 122°
2026-04-24 00:36 25.41856 55.71643 12205 ft 408 kts 104°
2026-04-24 00:36 25.41412 55.74745 12679 ft 410 kts 99°
2026-04-24 00:37 25.40902 55.77881 13206 ft 417 kts 104°
2026-04-24 00:37 25.40227 55.81019 13922 ft 420 kts 105°
2026-04-24 00:37 25.39515 55.84152 14585 ft 422 kts 105°
2026-04-24 00:37 25.38808 55.87323 15243 ft 426 kts 104°
2026-04-24 00:38 25.38118 55.90513 15919 ft 428 kts 104°
2026-04-24 00:38 25.37439 55.93687 16558 ft 432 kts 104°
2026-04-24 00:38 25.36747 55.96937 17191 ft 436 kts 104°
2026-04-24 00:38 25.36048 56.00214 17819 ft 440 kts 104°
2026-04-24 00:39 25.35342 56.03523 18408 ft 444 kts 104°
2026-04-24 00:39 25.34632 56.06847 18951 ft 447 kts 104°
2026-04-24 00:39 25.33915 56.10198 19495 ft 450 kts 104°
2026-04-24 00:39 25.33189 56.13582 20051 ft 453 kts 104°
2026-04-24 00:40 25.32429 56.16968 20572 ft 456 kts 107°
2026-04-24 00:40 25.31420 56.20304 21105 ft 459 kts 112°
2026-04-24 00:40 25.30279 56.23552 21624 ft 461 kts 113°
2026-04-24 00:40 25.29102 56.26862 22162 ft 465 kts 112°
2026-04-24 00:41 25.27953 56.30217 22663 ft 468 kts 112°
2026-04-24 00:41 25.26835 56.33602 23153 ft 471 kts 111°
2026-04-24 00:41 25.25744 56.36950 23613 ft 473 kts 111°
2026-04-24 00:41 25.24622 56.40382 23997 ft 476 kts 111°
2026-04-24 00:42 25.23486 56.43826 24361 ft 479 kts 111°
2026-04-24 00:42 25.22340 56.47292 24750 ft 482 kts 111°
2026-04-24 00:42 25.21184 56.50787 25136 ft 485 kts 111°
2026-04-24 00:42 25.20024 56.54296 25520 ft 488 kts 111°
2026-04-24 00:43 25.18855 56.57830 25889 ft 491 kts 111°
2026-04-24 00:43 25.17679 56.61256 26248 ft 493 kts 113°
2026-04-24 00:43 25.16391 56.64719 26602 ft 496 kts 114°
2026-04-24 00:43 25.15072 56.68139 26943 ft 498 kts 114°
2026-04-24 00:44 25.13699 56.71669 27283 ft 501 kts 114°
2026-04-24 00:44 25.12325 56.75220 27628 ft 504 kts 114°
2026-04-24 00:44 25.10956 56.78786 27964 ft 506 kts 114°
2026-04-24 00:44 25.09590 56.82370 28260 ft 510 kts 114°
2026-04-24 00:45 25.08216 56.85993 28543 ft 513 kts 114°
2026-04-24 00:45 25.06859 56.89574 28862 ft 515 kts 113°
2026-04-24 00:45 25.05473 56.93234 29163 ft 516 kts 113°
2026-04-24 00:45 25.04089 56.96887 29493 ft 517 kts 113°
2026-04-24 00:46 25.02702 57.00539 29916 ft 516 kts 113°
2026-04-24 00:46 25.01315 57.04188 30290 ft 515 kts 113°
2026-04-24 00:46 24.99932 57.07821 30646 ft 514 kts 113°
2026-04-24 00:46 24.98547 57.11457 30981 ft 514 kts 113°
2026-04-24 00:47 24.97241 57.14881 31297 ft 513 kts 113°
2026-04-24 00:47 24.95979 57.18187 31614 ft 512 kts 113°
2026-04-24 00:47 24.94653 57.21658 31907 ft 512 kts 113°
2026-04-24 00:47 24.93334 57.25108 32193 ft 511 kts 113°
2026-04-24 00:48 24.92096 57.28343 32498 ft 511 kts 113°
2026-04-24 00:48 24.90743 57.31878 32777 ft 511 kts 113°
2026-04-24 00:48 24.88162 57.38609 32820 ft 513 kts 113°
2026-04-24 00:49 24.85477 57.45605 32814 ft 508 kts 113°